Location: Baller�as
(41.9020°N, 0.1554°W)
Time: 00:45:17
(UTC+00:00)

Cosmos 1725 Rocket - Pass Details

Date: 10 August 2020
Orbit: 961 x 991 km, 82.9° (Epoch: 22 September)

Event Time Altitude Azimuth Distance (km) Brightness Sun altitude
Exits shadow 23:18:04 55° 278° (W) 1,173 4.4 -31.8°
Maximum altitude 23:18:09 55° 281° (WNW) 1,172 4.4 -31.8°
Drops below altitude 10° 23:24:23 10° 359° (N) 2,762 7.2 -32.1°
Sets 23:26:59 0° 4° (N) 3,716 8.1 -32.2°
